Tracking 19219 objects as of 19-Jul-2018
HD Live streaming from Space Station
objects crossing your sky now

FENGYUN 1C DEB

Track FENGYUN 1C DEB now!
10-day predictions


NORAD ID: 31881
Int'l Code: 1999-025CKG
Perigee: 544.7 km
Apogee: 622.4 km
Inclination: 99.0 °
Period: 96.2 minutes
Semi major axis: 6954 km
RCS: 0.0079 m2 (small)
Launch date: May 10, 1999
Source: People's Republic of China (PRC)
Launch site: Taiyaun Space Center, China (TSC)

Note: This is SATELLITE DEBRIS
aabbcc
Your satellite tracking list
Your tracking list is empty




NASA's NSSDC Master Catalog

Two Line Element Set (TLE):
1 31881U 99025CKG 18199.34438528 +.00004076 +00000-0 +35071-3 0  9997
2 31881 099.0414 239.1644 0055829 271.3682 088.1141 14.96919417202779
Source of the keplerian elements: AFSPC